Location: Poughquag
(41.6090°N, 73.6820°W)
Time: 00:59:40
(UTC-04:00)

S-56A Canister/Altair - Pass Details

Date: 05 June 2020
Orbit: 633 x 2499 km, 38.9° (Epoch: 06 July)

Event Time Altitude Azimuth Distance (km) Brightness Sun altitude
Rises 04:30:54 0° 244° (WSW) 3,033 - -8.4°
Exits shadow 04:32:57 10° 239° (WSW) 2,241 9.3 -8.1°
Reaches altitude 10° 04:33:01 10° 239° (WSW) 2,218 9.2 -8.1°
Maximum altitude 04:37:57 55° 162° (SSE) 1,052 8.1 -7.4°
Drops below altitude 10° 04:44:56 10° 87° (E) 3,111 11.6 -6.4°
Sets 04:48:25 0° 84° (E) 4,385 12.5 -5.9°
